Year,Month,Day,Hour,Minute,Value (Times are PST for temperature in C)
2020,04,10,00,00,8.90
2020,04,10,00,01,8.90
2020,04,10,00,02,8.90
2020,04,10,00,03,8.90
2020,04,10,00,04,8.90
2020,04,10,00,05,8.90
2020,04,10,00,06,8.90
2020,04,10,00,07,8.90
2020,04,10,00,08,8.90
2020,04,10,00,09,8.90
2020,04,10,00,10,8.90
2020,04,10,00,11,8.90
2020,04,10,00,12,8.90
2020,04,10,00,13,8.90
2020,04,10,00,14,8.80
2020,04,10,00,15,8.80
2020,04,10,00,16,8.80
2020,04,10,00,17,8.80
2020,04,10,00,18,8.80
2020,04,10,00,19,8.80
2020,04,10,00,20,8.80
2020,04,10,00,21,8.80
2020,04,10,00,22,8.80
2020,04,10,00,23,8.70
2020,04,10,00,24,8.70
2020,04,10,00,25,8.70
2020,04,10,00,26,8.70
2020,04,10,00,27,8.70
2020,04,10,00,28,8.70
2020,04,10,00,29,8.70
2020,04,10,00,30,8.70
2020,04,10,00,31,8.70
2020,04,10,00,32,8.70
2020,04,10,00,33,8.60
2020,04,10,00,34,8.60
2020,04,10,00,35,8.60
2020,04,10,00,36,8.60
2020,04,10,00,37,8.60
2020,04,10,00,38,8.60
2020,04,10,00,39,8.60
2020,04,10,00,40,8.60
2020,04,10,00,41,8.60
2020,04,10,00,42,8.60
2020,04,10,00,43,8.50
2020,04,10,00,44,8.50
2020,04,10,00,45,8.50
2020,04,10,00,46,8.40
2020,04,10,00,47,8.40
2020,04,10,00,48,8.40
2020,04,10,00,49,8.40
2020,04,10,00,50,8.30
2020,04,10,00,51,8.30
2020,04,10,00,52,8.30
2020,04,10,00,53,8.30
2020,04,10,00,54,8.30
2020,04,10,00,55,8.30
2020,04,10,00,56,8.30
2020,04,10,00,57,8.30
2020,04,10,00,58,8.30
2020,04,10,00,59,8.30
2020,04,10,01,00,8.20
2020,04,10,01,01,8.20
2020,04,10,01,02,8.20
2020,04,10,01,03,8.20
2020,04,10,01,04,8.10
2020,04,10,01,05,8.10
2020,04,10,01,06,8.10
2020,04,10,01,07,8.00
2020,04,10,01,08,8.00
2020,04,10,01,09,7.90
2020,04,10,01,10,7.90
2020,04,10,01,11,7.90
2020,04,10,01,12,7.90
2020,04,10,01,13,7.80
2020,04,10,01,14,7.80
2020,04,10,01,15,7.80
2020,04,10,01,16,7.80
2020,04,10,01,17,7.80
2020,04,10,01,18,7.80
2020,04,10,01,19,7.80
2020,04,10,01,20,7.80
2020,04,10,01,21,7.80
2020,04,10,01,22,7.80
2020,04,10,01,23,7.80
2020,04,10,01,24,7.80
2020,04,10,01,25,7.80
2020,04,10,01,26,7.80
2020,04,10,01,27,7.80
2020,04,10,01,28,7.80
2020,04,10,01,29,7.80
2020,04,10,01,30,7.80
2020,04,10,01,31,7.90
2020,04,10,01,32,7.90
2020,04,10,01,33,7.90
2020,04,10,01,34,7.90
2020,04,10,01,35,7.90
2020,04,10,01,36,7.90
2020,04,10,01,37,7.90
2020,04,10,01,38,7.90
2020,04,10,01,39,7.90
2020,04,10,01,40,7.90
2020,04,10,01,41,7.90
2020,04,10,01,42,7.90
2020,04,10,01,43,7.90
2020,04,10,01,44,7.90
2020,04,10,01,45,7.90
2020,04,10,01,46,7.90
2020,04,10,01,47,7.90
2020,04,10,01,48,7.90
2020,04,10,01,49,7.90
2020,04,10,01,50,7.90
2020,04,10,01,51,7.90
2020,04,10,01,52,7.90
2020,04,10,01,53,7.80
2020,04,10,01,54,7.80
2020,04,10,01,55,7.80
2020,04,10,01,56,7.80
2020,04,10,01,57,7.80
2020,04,10,01,58,7.80
2020,04,10,01,59,7.80
2020,04,10,02,00,7.80
2020,04,10,02,01,7.80
2020,04,10,02,02,7.80
2020,04,10,02,03,7.80
2020,04,10,02,04,7.70
2020,04,10,02,05,7.70
2020,04,10,02,06,7.70
2020,04,10,02,07,7.70
2020,04,10,02,08,7.70
2020,04,10,02,09,7.70
2020,04,10,02,10,7.70
2020,04,10,02,11,7.70
2020,04,10,02,12,7.70
2020,04,10,02,13,7.70
2020,04,10,02,14,7.70
2020,04,10,02,15,7.70
2020,04,10,02,16,7.60
2020,04,10,02,17,7.60
2020,04,10,02,18,7.60
2020,04,10,02,19,7.60
2020,04,10,02,20,7.50
2020,04,10,02,21,7.50
2020,04,10,02,22,7.50
2020,04,10,02,23,7.40
2020,04,10,02,24,7.40
2020,04,10,02,25,7.40
2020,04,10,02,26,7.40
2020,04,10,02,27,7.40
2020,04,10,02,28,7.30
2020,04,10,02,29,7.30
2020,04,10,02,30,7.30
2020,04,10,02,31,7.30
2020,04,10,02,32,7.30
2020,04,10,02,33,7.30
2020,04,10,02,34,7.30
2020,04,10,02,35,7.30
2020,04,10,02,36,7.30
2020,04,10,02,37,7.20
2020,04,10,02,38,7.20
2020,04,10,02,39,7.20
2020,04,10,02,40,7.20
2020,04,10,02,41,7.20
2020,04,10,02,42,7.20
2020,04,10,02,43,7.20
2020,04,10,02,44,7.20
2020,04,10,02,45,7.20
2020,04,10,02,46,7.20
2020,04,10,02,47,7.20
2020,04,10,02,48,7.20
2020,04,10,02,49,7.20
2020,04,10,02,50,7.20
2020,04,10,02,51,7.20
2020,04,10,02,52,7.20
2020,04,10,02,53,7.20
2020,04,10,02,54,7.20
2020,04,10,02,55,7.20
2020,04,10,02,56,7.20
2020,04,10,02,57,7.20
2020,04,10,02,58,7.20
2020,04,10,02,59,7.20
2020,04,10,03,00,7.20
2020,04,10,03,01,7.20
2020,04,10,03,02,7.20
2020,04,10,03,03,7.20
2020,04,10,03,04,7.20
2020,04,10,03,05,7.10
2020,04,10,03,06,7.10
2020,04,10,03,07,7.10
2020,04,10,03,08,7.10
2020,04,10,03,09,7.10
2020,04,10,03,10,7.10
2020,04,10,03,11,7.10
2020,04,10,03,12,7.10
2020,04,10,03,13,7.10
2020,04,10,03,14,7.10
2020,04,10,03,15,7.10
2020,04,10,03,16,7.10
2020,04,10,03,17,7.00
2020,04,10,03,18,7.00
2020,04,10,03,19,7.00
2020,04,10,03,20,7.00
2020,04,10,03,21,7.00
2020,04,10,03,22,6.90
2020,04,10,03,23,6.90
2020,04,10,03,24,6.90
2020,04,10,03,25,6.90
2020,04,10,03,26,6.90
2020,04,10,03,27,6.90
2020,04,10,03,28,6.90
2020,04,10,03,29,6.90
2020,04,10,03,30,6.90
2020,04,10,03,31,6.90
2020,04,10,03,32,6.90
2020,04,10,03,33,6.90
2020,04,10,03,34,6.90
2020,04,10,03,35,6.90
2020,04,10,03,36,6.90
2020,04,10,03,37,6.90
2020,04,10,03,38,6.90
2020,04,10,03,39,6.90
2020,04,10,03,40,6.90
2020,04,10,03,41,6.90
2020,04,10,03,42,6.80
2020,04,10,03,43,6.80
2020,04,10,03,44,6.80
2020,04,10,03,45,6.80
2020,04,10,03,46,6.80
2020,04,10,03,47,6.80
2020,04,10,03,48,6.80
2020,04,10,03,49,6.80
2020,04,10,03,50,6.80
2020,04,10,03,51,6.80
2020,04,10,03,52,6.70
2020,04,10,03,53,6.70
2020,04,10,03,54,6.70
2020,04,10,03,55,6.70
2020,04,10,03,56,6.70
2020,04,10,03,57,6.70
2020,04,10,03,58,6.70
2020,04,10,03,59,6.60
2020,04,10,04,00,6.60
2020,04,10,04,01,6.60
2020,04,10,04,02,6.60
2020,04,10,04,03,6.60
2020,04,10,04,04,6.60
2020,04,10,04,05,6.60
2020,04,10,04,06,6.60
2020,04,10,04,07,6.60
2020,04,10,04,08,6.60
2020,04,10,04,09,6.60
2020,04,10,04,10,6.50
2020,04,10,04,11,6.50
2020,04,10,04,12,6.50
2020,04,10,04,13,6.50
2020,04,10,04,14,6.50
2020,04,10,04,15,6.50
2020,04,10,04,16,6.50
2020,04,10,04,17,6.40
2020,04,10,04,18,6.40
2020,04,10,04,19,6.40
2020,04,10,04,20,6.40
2020,04,10,04,21,6.40
2020,04,10,04,22,6.40
2020,04,10,04,23,6.40
2020,04,10,04,24,6.40
2020,04,10,04,25,6.40
2020,04,10,04,26,6.40
2020,04,10,04,27,6.40
2020,04,10,04,28,6.40
2020,04,10,04,29,6.40
2020,04,10,04,30,6.40
2020,04,10,04,31,6.30
2020,04,10,04,32,6.30
2020,04,10,04,33,6.30
2020,04,10,04,34,6.30
2020,04,10,04,35,6.30
2020,04,10,04,36,6.30
2020,04,10,04,37,6.30
2020,04,10,04,38,6.30
2020,04,10,04,39,6.30
2020,04,10,04,40,6.20
2020,04,10,04,41,6.20
2020,04,10,04,42,6.20
2020,04,10,04,43,6.20
2020,04,10,04,44,6.20
2020,04,10,04,45,6.20
2020,04,10,04,46,6.10
2020,04,10,04,47,6.10
2020,04,10,04,48,6.10
2020,04,10,04,49,6.10
2020,04,10,04,50,6.10
2020,04,10,04,51,6.10
2020,04,10,04,52,6.10
2020,04,10,04,53,6.10
2020,04,10,04,54,6.10
2020,04,10,04,55,6.10
2020,04,10,04,56,6.20
2020,04,10,04,57,6.20
2020,04,10,04,58,6.20
2020,04,10,04,59,6.20
2020,04,10,05,00,6.10
2020,04,10,05,01,6.10
2020,04,10,05,02,6.10
2020,04,10,05,03,6.10
2020,04,10,05,04,6.10
2020,04,10,05,05,6.10
2020,04,10,05,06,6.00
2020,04,10,05,07,6.00
2020,04,10,05,08,6.00
2020,04,10,05,09,6.00
2020,04,10,05,10,6.00
2020,04,10,05,11,6.00
2020,04,10,05,12,6.00
2020,04,10,05,13,6.00
2020,04,10,05,14,6.00
2020,04,10,05,15,6.00
2020,04,10,05,16,6.00
2020,04,10,05,17,6.00
2020,04,10,05,18,6.00
2020,04,10,05,19,5.90
2020,04,10,05,20,5.90
2020,04,10,05,21,5.90
2020,04,10,05,22,5.90
2020,04,10,05,23,5.90
2020,04,10,05,24,5.90
2020,04,10,05,25,5.90
2020,04,10,05,26,5.90
2020,04,10,05,27,5.90
2020,04,10,05,28,5.90
2020,04,10,05,29,5.90
2020,04,10,05,30,5.90
2020,04,10,05,31,5.90
2020,04,10,05,32,5.80
2020,04,10,05,33,5.80
2020,04,10,05,34,5.80
2020,04,10,05,35,5.80
2020,04,10,05,36,5.80
2020,04,10,05,37,5.80
2020,04,10,05,38,5.80
2020,04,10,05,39,5.80
2020,04,10,05,40,5.80
2020,04,10,05,41,5.80
2020,04,10,05,42,5.80
2020,04,10,05,43,5.80
2020,04,10,05,44,5.80
2020,04,10,05,45,5.80
2020,04,10,05,46,5.80
2020,04,10,05,47,5.80
2020,04,10,05,48,5.80
2020,04,10,05,49,5.70
2020,04,10,05,50,5.70
2020,04,10,05,51,5.70
2020,04,10,05,52,5.70
2020,04,10,05,53,5.70
2020,04,10,05,54,5.70
2020,04,10,05,55,5.70
2020,04,10,05,56,5.70
2020,04,10,05,57,5.70
2020,04,10,05,58,5.70
2020,04,10,05,59,5.70
2020,04,10,06,00,5.70
2020,04,10,06,01,5.70
2020,04,10,06,02,5.70
2020,04,10,06,03,5.70
2020,04,10,06,04,5.60
2020,04,10,06,05,5.60
2020,04,10,06,06,5.60
2020,04,10,06,07,5.60
2020,04,10,06,08,5.60
2020,04,10,06,09,5.60
2020,04,10,06,10,5.60
2020,04,10,06,11,5.60
2020,04,10,06,12,5.60
2020,04,10,06,13,5.60
2020,04,10,06,14,5.60
2020,04,10,06,15,5.60
2020,04,10,06,16,5.60
2020,04,10,06,17,5.60
2020,04,10,06,18,5.60
2020,04,10,06,19,5.60
2020,04,10,06,20,5.60
2020,04,10,06,21,5.60
2020,04,10,06,22,5.60
2020,04,10,06,23,5.60
2020,04,10,06,24,5.60
2020,04,10,06,25,5.60
2020,04,10,06,26,5.60
2020,04,10,06,27,5.60
2020,04,10,06,28,5.60
2020,04,10,06,29,5.60
2020,04,10,06,30,5.60
2020,04,10,06,31,5.60
2020,04,10,06,32,5.60
2020,04,10,06,33,5.60
2020,04,10,06,34,5.60
2020,04,10,06,35,5.60
2020,04,10,06,36,5.60
2020,04,10,06,37,5.60
2020,04,10,06,38,5.60
2020,04,10,06,39,5.60
2020,04,10,06,40,5.50
2020,04,10,06,41,5.50
2020,04,10,06,42,5.50
2020,04,10,06,43,5.50
2020,04,10,06,44,5.50
2020,04,10,06,45,5.50
2020,04,10,06,46,5.50
2020,04,10,06,47,5.50
2020,04,10,06,48,5.60
2020,04,10,06,49,5.60
2020,04,10,06,50,5.60
2020,04,10,06,51,5.60
2020,04,10,06,52,5.60
2020,04,10,06,53,5.60
2020,04,10,06,54,5.60
2020,04,10,06,55,5.60
2020,04,10,06,56,5.60
2020,04,10,06,57,5.60
2020,04,10,06,58,5.60
2020,04,10,06,59,5.60
2020,04,10,07,00,5.60
2020,04,10,07,01,5.70
2020,04,10,07,02,5.70
2020,04,10,07,03,5.70
2020,04,10,07,04,5.70
2020,04,10,07,05,5.70
2020,04,10,07,06,5.70
2020,04,10,07,07,5.70
2020,04,10,07,08,5.70
2020,04,10,07,09,5.70
2020,04,10,07,10,5.70
2020,04,10,07,11,5.70
2020,04,10,07,12,5.70
2020,04,10,07,13,5.70
2020,04,10,07,14,5.70
2020,04,10,07,15,5.80
2020,04,10,07,16,5.80
2020,04,10,07,17,5.80
2020,04,10,07,18,5.80
2020,04,10,07,19,5.80
2020,04,10,07,20,5.80
2020,04,10,07,21,5.80
2020,04,10,07,22,5.80
2020,04,10,07,23,5.80
2020,04,10,07,24,5.80
2020,04,10,07,25,5.80
2020,04,10,07,26,5.80
2020,04,10,07,27,5.80
2020,04,10,07,28,5.80
2020,04,10,07,29,5.80
2020,04,10,07,30,5.80
2020,04,10,07,31,5.80
2020,04,10,07,32,5.80
2020,04,10,07,33,5.80
2020,04,10,07,34,5.80
2020,04,10,07,35,5.80
2020,04,10,07,36,5.80
2020,04,10,07,37,5.90
2020,04,10,07,38,5.90
2020,04,10,07,39,5.90
2020,04,10,07,40,5.90
2020,04,10,07,41,5.90
2020,04,10,07,42,5.90
2020,04,10,07,43,5.90
2020,04,10,07,44,5.90
2020,04,10,07,45,6.00
2020,04,10,07,46,6.00
2020,04,10,07,47,6.00
2020,04,10,07,48,6.00
2020,04,10,07,49,6.10
2020,04,10,07,50,6.10
2020,04,10,07,51,6.10
2020,04,10,07,52,6.10
2020,04,10,07,53,6.10
2020,04,10,07,54,6.10
2020,04,10,07,55,6.10
2020,04,10,07,56,6.10
2020,04,10,07,57,6.10
2020,04,10,07,58,6.20
2020,04,10,07,59,6.20
2020,04,10,08,00,6.20
2020,04,10,08,01,6.20
2020,04,10,08,02,6.20
2020,04,10,08,03,6.30
2020,04,10,08,04,6.30
2020,04,10,08,05,6.30
2020,04,10,08,06,6.30
2020,04,10,08,07,6.40
2020,04,10,08,08,6.40
2020,04,10,08,09,6.40
2020,04,10,08,10,6.40
2020,04,10,08,11,6.50
2020,04,10,08,12,6.50
2020,04,10,08,13,6.50
2020,04,10,08,14,6.60
2020,04,10,08,15,6.60
2020,04,10,08,16,6.60
2020,04,10,08,17,6.70
2020,04,10,08,18,6.70
2020,04,10,08,19,6.70
2020,04,10,08,20,6.70
2020,04,10,08,21,6.80
2020,04,10,08,22,6.80
2020,04,10,08,23,6.80
2020,04,10,08,24,6.90
2020,04,10,08,25,6.90
2020,04,10,08,26,6.90
2020,04,10,08,27,7.00
2020,04,10,08,28,7.10
2020,04,10,08,29,7.10
2020,04,10,08,30,7.10
2020,04,10,08,31,7.20
2020,04,10,08,32,7.20
2020,04,10,08,33,7.20
2020,04,10,08,34,7.20
2020,04,10,08,35,7.30
2020,04,10,08,36,7.30
2020,04,10,08,37,7.40
2020,04,10,08,38,7.40
2020,04,10,08,39,7.50
2020,04,10,08,40,7.50
2020,04,10,08,41,7.60
2020,04,10,08,42,7.60
2020,04,10,08,43,7.70
2020,04,10,08,44,7.70
2020,04,10,08,45,7.80
2020,04,10,08,46,7.80
2020,04,10,08,47,7.80
2020,04,10,08,48,7.90
2020,04,10,08,49,7.90
2020,04,10,08,50,7.90
2020,04,10,08,51,8.00
2020,04,10,08,52,8.00
2020,04,10,08,53,8.10
2020,04,10,08,54,8.10
2020,04,10,08,55,8.10
2020,04,10,08,56,8.10
2020,04,10,08,57,8.10
2020,04,10,08,58,8.20
2020,04,10,08,59,8.20
2020,04,10,09,00,8.20
2020,04,10,09,01,8.20
2020,04,10,09,02,8.20
2020,04,10,09,03,8.30
2020,04,10,09,04,8.30
2020,04,10,09,05,8.40
2020,04,10,09,06,8.40
2020,04,10,09,07,8.40
2020,04,10,09,08,8.50
2020,04,10,09,09,8.50
2020,04,10,09,10,8.60
2020,04,10,09,11,8.70
2020,04,10,09,12,8.70
2020,04,10,09,13,8.80
2020,04,10,09,14,8.80
2020,04,10,09,15,8.90
2020,04,10,09,16,9.00
2020,04,10,09,17,9.10
2020,04,10,09,18,9.10
2020,04,10,09,19,9.20
2020,04,10,09,20,9.20
2020,04,10,09,21,9.20
2020,04,10,09,22,9.30
2020,04,10,09,23,9.30
2020,04,10,09,24,9.40
2020,04,10,09,25,9.50
2020,04,10,09,26,9.60
2020,04,10,09,27,9.60
2020,04,10,09,28,9.70
2020,04,10,09,29,9.80
2020,04,10,09,30,9.90
2020,04,10,09,31,10.00
2020,04,10,09,32,10.00
2020,04,10,09,33,10.10
2020,04,10,09,34,10.20
2020,04,10,09,35,10.30
2020,04,10,09,36,10.40
2020,04,10,09,37,10.50
2020,04,10,09,38,10.60
2020,04,10,09,39,10.70
2020,04,10,09,40,10.80
2020,04,10,09,41,10.80
2020,04,10,09,42,10.90
2020,04,10,09,43,11.00
2020,04,10,09,44,11.10
2020,04,10,09,45,11.20
2020,04,10,09,46,11.30
2020,04,10,09,47,11.30
2020,04,10,09,48,11.30
2020,04,10,09,49,11.30
2020,04,10,09,50,11.30
2020,04,10,09,51,11.30
2020,04,10,09,52,11.30
2020,04,10,09,53,11.30
2020,04,10,09,54,11.30
2020,04,10,09,55,11.30
2020,04,10,09,56,11.30
2020,04,10,11,38,15.30
2020,04,10,11,39,15.40
2020,04,10,11,40,15.50
2020,04,10,11,41,15.50
2020,04,10,11,42,15.60
2020,04,10,11,43,15.60
2020,04,10,11,44,15.60
2020,04,10,11,45,15.50
2020,04,10,11,46,15.50
2020,04,10,11,47,15.50
2020,04,10,11,48,15.60
2020,04,10,11,49,15.60
2020,04,10,11,50,15.60
2020,04,10,11,51,15.70
2020,04,10,11,52,15.70
2020,04,10,11,53,15.80
2020,04,10,11,54,15.80
2020,04,10,11,55,15.90
2020,04,10,11,56,15.90
2020,04,10,11,57,15.90
2020,04,10,11,58,15.90
2020,04,10,11,59,16.00
2020,04,10,12,00,16.00
2020,04,10,12,01,16.10
2020,04,10,12,02,16.10
2020,04,10,12,03,16.10
2020,04,10,12,04,16.10
2020,04,10,12,05,16.10
2020,04,10,12,06,16.10
2020,04,10,12,07,16.10
2020,04,10,12,08,16.10
2020,04,10,12,09,16.10
2020,04,10,12,10,16.10
2020,04,10,12,11,16.20
2020,04,10,12,12,16.10
2020,04,10,12,13,16.10
2020,04,10,12,14,16.10
2020,04,10,12,15,16.10
2020,04,10,12,16,16.20
2020,04,10,12,17,16.10
2020,04,10,12,18,16.10
2020,04,10,12,19,16.10
2020,04,10,12,20,16.10
2020,04,10,12,21,16.00
2020,04,10,12,22,16.10
2020,04,10,12,23,16.10
2020,04,10,12,24,16.10
2020,04,10,12,25,16.10
2020,04,10,12,26,16.00
2020,04,10,12,27,15.90
2020,04,10,12,28,15.80
2020,04,10,12,29,15.80
2020,04,10,12,30,15.80
2020,04,10,12,31,15.80
2020,04,10,12,32,15.80
2020,04,10,12,33,15.90
2020,04,10,12,34,15.90
2020,04,10,12,35,16.00
2020,04,10,12,36,16.00
2020,04,10,12,37,16.10
2020,04,10,12,38,16.20
2020,04,10,12,39,16.30
2020,04,10,12,40,16.30
2020,04,10,12,41,16.30
2020,04,10,12,42,16.30
2020,04,10,12,43,16.30
2020,04,10,12,44,16.20
2020,04,10,12,45,16.10
2020,04,10,12,46,15.90
2020,04,10,12,47,15.80
2020,04,10,12,48,15.70
2020,04,10,12,49,15.60
2020,04,10,12,50,15.50
2020,04,10,12,51,15.50
2020,04,10,12,52,15.50
2020,04,10,12,53,15.60
2020,04,10,12,54,15.70
2020,04,10,12,55,15.80
2020,04,10,12,56,15.90
2020,04,10,12,57,16.00
2020,04,10,12,58,16.10
2020,04,10,12,59,16.20
2020,04,10,13,00,16.30
2020,04,10,13,01,16.40
2020,04,10,13,02,16.50
2020,04,10,13,03,16.50
2020,04,10,13,04,16.50
2020,04,10,13,05,16.40
2020,04,10,13,06,16.40
2020,04,10,13,07,16.50
2020,04,10,13,08,16.40
2020,04,10,13,09,16.40
2020,04,10,13,10,16.30
2020,04,10,13,11,16.30
2020,04,10,13,12,16.30
2020,04,10,13,13,16.30
2020,04,10,13,14,16.30
2020,04,10,13,15,16.30
2020,04,10,13,16,16.30
2020,04,10,13,17,16.40
2020,04,10,13,18,16.40
2020,04,10,13,19,16.50
2020,04,10,13,20,16.50
2020,04,10,13,21,16.60
2020,04,10,13,22,16.60
2020,04,10,13,23,16.70
2020,04,10,13,24,16.70
2020,04,10,13,25,16.70
2020,04,10,13,26,16.60
2020,04,10,13,27,16.60
2020,04,10,13,28,16.50
2020,04,10,13,29,16.40
2020,04,10,13,30,16.40
2020,04,10,13,31,16.30
2020,04,10,13,32,16.30
2020,04,10,13,33,16.20
2020,04,10,13,34,16.10
2020,04,10,13,35,15.90
2020,04,10,13,36,15.80
2020,04,10,13,37,15.80
2020,04,10,13,38,15.70
2020,04,10,13,39,15.70
2020,04,10,13,40,15.80
2020,04,10,13,41,15.80
2020,04,10,13,42,15.90
2020,04,10,13,43,16.10
2020,04,10,13,44,16.10
2020,04,10,13,45,16.20
2020,04,10,13,46,16.20
2020,04,10,13,47,16.20
2020,04,10,13,48,16.20
2020,04,10,13,49,16.10
2020,04,10,13,50,16.10
2020,04,10,13,51,16.10
2020,04,10,13,52,16.10
2020,04,10,13,53,16.20
2020,04,10,13,54,16.30
2020,04,10,13,55,16.30
2020,04,10,13,56,16.20
2020,04,10,13,57,16.30
2020,04,10,13,58,16.30
2020,04,10,13,59,16.30
2020,04,10,14,00,16.40
2020,04,10,14,01,16.40
2020,04,10,14,02,16.40
2020,04,10,14,03,16.40
2020,04,10,14,04,16.30
2020,04,10,14,05,16.30
2020,04,10,14,06,16.30
2020,04,10,14,07,16.30
2020,04,10,14,08,16.30
2020,04,10,14,09,16.20
2020,04,10,14,10,16.20
2020,04,10,14,11,16.20
2020,04,10,14,12,16.30
2020,04,10,14,13,16.30
2020,04,10,14,14,16.30
2020,04,10,14,15,16.30
2020,04,10,14,16,16.30
2020,04,10,14,17,16.30
2020,04,10,14,18,16.30
2020,04,10,14,19,16.30
2020,04,10,14,20,16.30
2020,04,10,14,21,16.30
2020,04,10,14,22,16.30
2020,04,10,14,23,16.40
2020,04,10,14,24,16.40
2020,04,10,14,25,16.50
2020,04,10,14,26,16.60
2020,04,10,14,27,16.70
2020,04,10,14,28,16.70
2020,04,10,14,29,16.80
2020,04,10,14,30,16.90
2020,04,10,14,31,16.90
2020,04,10,14,32,17.10
2020,04,10,14,33,17.20
2020,04,10,14,34,17.20
2020,04,10,14,35,17.30
2020,04,10,14,36,17.30
2020,04,10,14,37,17.20
2020,04,10,14,38,17.20
2020,04,10,14,39,17.10
2020,04,10,14,40,17.10
2020,04,10,14,41,17.00
2020,04,10,14,42,16.90
2020,04,10,14,43,16.90
2020,04,10,14,44,16.80
2020,04,10,14,45,16.70
2020,04,10,14,46,16.60
2020,04,10,14,47,16.50
2020,04,10,14,48,16.50
2020,04,10,14,49,16.50
2020,04,10,14,50,16.50
2020,04,10,14,51,16.50
2020,04,10,14,52,16.50
2020,04,10,14,53,16.50
2020,04,10,14,54,16.60
2020,04,10,14,55,16.70
2020,04,10,14,56,16.80
2020,04,10,14,57,16.90
2020,04,10,14,58,17.00
2020,04,10,14,59,16.90
2020,04,10,15,00,16.80
2020,04,10,15,01,16.70
2020,04,10,15,02,16.70
2020,04,10,15,03,16.60
2020,04,10,15,04,16.50
2020,04,10,15,05,16.50
2020,04,10,15,06,16.40
2020,04,10,15,07,16.30
2020,04,10,15,08,16.30
2020,04,10,15,09,16.30
2020,04,10,15,10,16.30
2020,04,10,15,11,16.40
2020,04,10,15,12,16.40
2020,04,10,15,13,16.40
2020,04,10,15,14,16.50
2020,04,10,15,15,16.50
2020,04,10,15,16,16.60
2020,04,10,15,17,16.80
2020,04,10,15,18,16.90
2020,04,10,15,19,16.90
2020,04,10,15,20,16.90
2020,04,10,15,21,16.90
2020,04,10,15,22,16.90
2020,04,10,15,23,16.90
2020,04,10,15,24,16.90
2020,04,10,15,25,16.90
2020,04,10,15,26,16.90
2020,04,10,15,27,16.90
2020,04,10,15,28,16.80
2020,04,10,15,29,16.70
2020,04,10,15,30,16.60
2020,04,10,15,31,16.50
2020,04,10,15,32,16.50
2020,04,10,15,33,16.50
2020,04,10,15,34,16.50
2020,04,10,15,35,16.50
2020,04,10,15,36,16.60
2020,04,10,15,37,16.60
2020,04,10,15,38,16.50
2020,04,10,15,39,16.40
2020,04,10,15,40,16.40
2020,04,10,15,41,16.30
2020,04,10,15,42,16.40
2020,04,10,15,43,16.40
2020,04,10,15,44,16.50
2020,04,10,15,45,16.50
2020,04,10,15,46,16.60
2020,04,10,15,47,16.70
2020,04,10,15,48,16.80
2020,04,10,15,49,16.80
2020,04,10,15,50,16.90
2020,04,10,15,51,16.90
2020,04,10,15,52,16.90
2020,04,10,15,53,16.80
2020,04,10,15,54,16.80
2020,04,10,15,55,16.80
2020,04,10,15,56,16.90
2020,04,10,15,57,16.90
2020,04,10,15,58,16.90
2020,04,10,15,59,16.90
2020,04,10,16,00,16.90
2020,04,10,16,01,16.90
2020,04,10,16,02,17.00
2020,04,10,16,03,17.00
2020,04,10,16,04,17.00
2020,04,10,16,05,17.00
2020,04,10,16,06,17.00
2020,04,10,16,07,16.90
2020,04,10,16,08,16.90
2020,04,10,16,09,16.90
2020,04,10,16,10,16.80
2020,04,10,16,11,16.70
2020,04,10,16,12,16.60
2020,04,10,16,13,16.40
2020,04,10,16,14,16.30
2020,04,10,16,15,16.20
2020,04,10,16,16,16.10
2020,04,10,16,17,16.10
2020,04,10,16,18,16.10
2020,04,10,16,19,16.10
2020,04,10,16,20,16.00
2020,04,10,16,21,16.00
2020,04,10,16,22,16.00
2020,04,10,16,23,15.90
2020,04,10,16,24,16.00
2020,04,10,16,25,16.00
2020,04,10,16,26,16.10
2020,04,10,16,27,16.10
2020,04,10,16,28,16.20
2020,04,10,16,29,16.30
2020,04,10,16,30,16.40
2020,04,10,16,31,16.40
2020,04,10,16,32,16.50
2020,04,10,16,33,16.60
2020,04,10,16,34,16.60
2020,04,10,16,35,16.70
2020,04,10,16,36,16.80
2020,04,10,16,37,16.90
2020,04,10,16,38,17.00
2020,04,10,16,39,17.10
2020,04,10,16,40,17.20
2020,04,10,16,41,17.30
2020,04,10,16,42,17.30
2020,04,10,16,43,17.30
2020,04,10,16,44,17.20
2020,04,10,16,45,17.20
2020,04,10,16,46,17.10
2020,04,10,16,47,17.10
2020,04,10,16,48,17.10
2020,04,10,16,49,17.10
2020,04,10,16,50,17.00
2020,04,10,16,51,17.00
2020,04,10,16,52,16.90
2020,04,10,16,53,16.90
2020,04,10,16,54,16.80
2020,04,10,16,55,16.70
2020,04,10,16,56,16.60
2020,04,10,16,57,16.60
2020,04,10,16,58,16.50
2020,04,10,16,59,16.40
2020,04,10,17,00,16.30
2020,04,10,17,01,16.10
2020,04,10,17,02,16.10
2020,04,10,17,03,16.00
2020,04,10,17,04,15.90
2020,04,10,17,05,15.90
2020,04,10,17,06,15.80
2020,04,10,17,07,15.80
2020,04,10,17,08,15.80
2020,04,10,17,09,15.80
2020,04,10,17,10,15.80
2020,04,10,17,11,15.80
2020,04,10,17,12,15.80
2020,04,10,17,13,15.80
2020,04,10,17,14,15.90
2020,04,10,17,15,15.90
2020,04,10,17,16,15.90
2020,04,10,17,17,15.90
2020,04,10,17,18,15.90
2020,04,10,17,19,15.90
2020,04,10,17,20,15.90
2020,04,10,17,21,15.90
2020,04,10,17,22,15.90
2020,04,10,17,23,15.90
2020,04,10,17,24,15.90
2020,04,10,17,25,15.80
2020,04,10,17,26,15.80
2020,04,10,17,27,15.70
2020,04,10,17,28,15.60
2020,04,10,17,29,15.60
2020,04,10,17,30,15.50
2020,04,10,17,31,15.40
2020,04,10,17,32,15.40
2020,04,10,17,33,15.30
2020,04,10,17,34,15.20
2020,04,10,17,35,15.10
2020,04,10,17,36,15.00
2020,04,10,17,37,15.00
2020,04,10,17,38,15.00
2020,04,10,17,39,15.00
2020,04,10,17,40,15.10
2020,04,10,17,41,15.10
2020,04,10,17,42,15.10
2020,04,10,17,43,15.20
2020,04,10,17,44,15.20
2020,04,10,17,45,15.20
2020,04,10,17,46,15.10
2020,04,10,17,47,15.10
2020,04,10,17,48,15.10
2020,04,10,17,49,15.10
2020,04,10,17,50,15.00
2020,04,10,17,51,15.00
2020,04,10,17,52,15.00
2020,04,10,17,53,15.00
2020,04,10,17,54,15.00
2020,04,10,17,55,15.00
2020,04,10,17,56,15.00
2020,04,10,17,57,15.00
2020,04,10,17,58,15.00
2020,04,10,17,59,15.00
2020,04,10,18,00,15.00
2020,04,10,18,01,15.00
2020,04,10,18,02,15.00
2020,04,10,18,03,15.00
2020,04,10,18,04,15.00
2020,04,10,18,05,15.00
2020,04,10,18,06,15.00
2020,04,10,18,07,15.00
2020,04,10,18,08,15.00
2020,04,10,18,09,15.00
2020,04,10,18,10,14.90
2020,04,10,18,11,14.80
2020,04,10,18,12,14.70
2020,04,10,18,13,14.70
2020,04,10,18,14,14.60
2020,04,10,18,15,14.60
2020,04,10,18,16,14.50
2020,04,10,18,17,14.50
2020,04,10,18,18,14.40
2020,04,10,18,19,14.40
2020,04,10,18,20,14.30
2020,04,10,18,21,14.30
2020,04,10,18,22,14.30
2020,04,10,18,23,14.30
2020,04,10,18,24,14.30
2020,04,10,18,25,14.20
2020,04,10,18,26,14.20
2020,04,10,18,27,14.20
2020,04,10,18,28,14.20
2020,04,10,18,29,14.20
2020,04,10,18,30,14.20
2020,04,10,18,31,14.20
2020,04,10,18,32,14.20
2020,04,10,18,33,14.20
2020,04,10,18,34,14.20
2020,04,10,18,35,14.20
2020,04,10,18,36,14.20
2020,04,10,18,37,14.20
2020,04,10,18,38,14.20
2020,04,10,18,39,14.10
2020,04,10,18,40,14.10
2020,04,10,18,41,14.10
2020,04,10,18,42,14.10
2020,04,10,18,43,14.10
2020,04,10,18,44,14.10
2020,04,10,18,45,14.10
2020,04,10,18,46,14.10
2020,04,10,18,47,14.10
2020,04,10,18,48,14.10
2020,04,10,18,49,14.20
2020,04,10,18,50,14.20
2020,04,10,18,51,14.20
2020,04,10,18,52,14.20
2020,04,10,18,53,14.20
2020,04,10,18,54,14.20
2020,04,10,18,55,14.20
2020,04,10,18,56,14.20
2020,04,10,18,57,14.20
2020,04,10,18,58,14.30
2020,04,10,18,59,14.30
2020,04,10,19,00,14.30
2020,04,10,19,01,14.30
2020,04,10,19,02,14.30
2020,04,10,19,03,14.30
2020,04,10,19,04,14.30
2020,04,10,19,05,14.30
2020,04,10,19,06,14.30
2020,04,10,19,07,14.30
2020,04,10,19,08,14.20
2020,04,10,19,09,14.20
2020,04,10,19,10,14.20
2020,04,10,19,11,14.10
2020,04,10,19,12,14.10
2020,04,10,19,13,14.00
2020,04,10,19,14,14.00
2020,04,10,19,15,13.90
2020,04,10,19,16,13.90
2020,04,10,19,17,13.90
2020,04,10,19,18,13.80
2020,04,10,19,19,13.80
2020,04,10,19,20,13.80
2020,04,10,19,21,13.80
2020,04,10,19,22,13.70
2020,04,10,19,23,13.70
2020,04,10,19,24,13.70
2020,04,10,19,25,13.60